,,,PA_Meas_PMT16A,,PR_Meas_QMR101_102,,RH_Meas_QMH101,,SR_Meas_QMS101,,TA_Meas_QMH101,,GenWind,,GenWind,
date,time,status,PA,status,PR,status,RH,status,SR,status,TA,status,DirAvg,status,SpdAvg,
2015-01-04, 00:00:05,VALID,1009.88,VALID,0,INVALID,138.972,VALID,0.112112,VALID,24.3176,VALID,256,VALID,0,
2015-01-04, 00:01:05,VALID,1009.9,VALID,0,INVALID,138.979,VALID,0,VALID,24.2981,VALID,256,VALID,0,
2015-01-04, 00:02:05,VALID,1009.89,VALID,0,INVALID,138.979,VALID,0,VALID,24.2981,VALID,256,VALID,0,
2015-01-04, 00:03:05,VALID,1009.9,VALID,0,INVALID,139.071,VALID,0,VALID,24.2981,VALID,256,VALID,0,
2015-01-04, 00:04:05,VALID,1009.9,VALID,0,INVALID,139.124,VALID,0.112112,VALID,24.3176,VALID,256,VALID,0,
2015-01-04, 00:05:05,VALID,1009.86,VALID,0,INVALID,139.193,VALID,0,VALID,24.3371,VALID,256,VALID,0,
2015-01-04, 00:06:05,VALID,1009.86,VALID,0,INVALID,139.262,VALID,0.112112,VALID,24.3352,VALID,256,VALID,0,
2015-01-04, 00:07:05,VALID,1009.82,VALID,0,INVALID,139.254,VALID,0.112112,VALID,24.3566,VALID,256,VALID,0,
2015-01-04, 00:08:05,VALID,1009.8,VALID,0,INVALID,139.185,VALID,0,VALID,24.3158,VALID,256,VALID,0,
2015-01-04, 00:09:05,VALID,1009.82,VALID,0,INVALID,139.147,VALID,0,VALID,24.3371,VALID,256,VALID,0,
2015-01-04, 00:10:05,VALID,1009.79,VALID,0,INVALID,139.117,VALID,0.112112,VALID,24.3371,VALID,256,VALID,0,
2015-01-04, 00:11:05,VALID,1009.75,VALID,0,INVALID,139.117,VALID,0,VALID,24.3371,VALID,256,VALID,0,
2015-01-04, 00:12:05,VALID,1009.72,VALID,0,INVALID,139.147,VALID,0.112112,VALID,24.3371,VALID,256,VALID,0,
2015-01-04, 00:13:05,VALID,1009.68,VALID,0,INVALID,139.162,VALID,0.112112,VALID,24.3176,VALID,256,VALID,0,
2015-01-04, 00:14:05,VALID,1009.64,VALID,0,INVALID,139.269,VALID,0.112112,VALID,24.3371,VALID,256,VALID,0,
2015-01-04, 00:15:05,VALID,1009.62,VALID,0,INVALID,139.399,VALID,0,VALID,24.3371,VALID,256,VALID,0,
2015-01-04, 00:16:05,VALID,1009.62,VALID,0,INVALID,139.536,VALID,0,VALID,24.3176,VALID,256,VALID,0,
2015-01-04, 00:17:05,VALID,1009.61,VALID,0,INVALID,139.628,VALID,0,VALID,24.3371,VALID,256,VALID,0,
2015-01-04, 00:18:05,VALID,1009.63,VALID,0,INVALID,139.666,VALID,0,VALID,24.3371,VALID,256,VALID,0,
2015-01-04, 00:19:05,VALID,1009.63,VALID,0,INVALID,139.711,VALID,0,VALID,24.3176,VALID,256,VALID,0,
2015-01-04, 00:20:05,VALID,1009.64,VALID,0,INVALID,139.772,VALID,0,VALID,24.3371,VALID,256,VALID,0,
2015-01-04, 00:21:05,VALID,1009.63,VALID,0,INVALID,139.772,VALID,0,VALID,24.3176,VALID,256,VALID,0,
2015-01-04, 00:22:05,VALID,1009.6,VALID,0,INVALID,139.78,VALID,0,VALID,24.3176,VALID,256,VALID,0,
2015-01-04, 00:23:05,VALID,1009.61,VALID,0,INVALID,139.78,VALID,0,VALID,24.3176,VALID,256,VALID,0,
2015-01-04, 00:24:05,VALID,1009.59,VALID,0,INVALID,139.772,VALID,0.112112,VALID,24.3176,VALID,256,VALID,0,
2015-01-04, 00:25:05,VALID,1009.55,VALID,0,INVALID,139.742,VALID,0,VALID,24.2981,VALID,256,VALID,0,
2015-01-04, 00:26:05,VALID,1009.51,VALID,0,INVALID,139.727,VALID,0,VALID,24.2981,VALID,256,VALID,0,
2015-01-04, 00:27:05,VALID,1009.49,VALID,0,INVALID,139.628,VALID,0,VALID,24.2591,VALID,256,VALID,0,
2015-01-04, 00:28:05,VALID,1009.47,VALID,0,INVALID,139.437,VALID,0,VALID,24.2415,VALID,256,VALID,0,
2015-01-04, 00:29:05,VALID,1009.48,VALID,0,INVALID,139.406,VALID,0,VALID,24.2007,VALID,256,VALID,0,
2015-01-04, 00:30:05,VALID,1009.52,VALID,0,INVALID,139.391,VALID,0,VALID,24.1812,VALID,256,VALID,0,
2015-01-04, 00:31:05,VALID,1009.57,VALID,0,INVALID,139.445,VALID,0,VALID,24.1812,VALID,256,VALID,0,
2015-01-04, 00:32:05,VALID,1009.6,VALID,0,INVALID,139.521,VALID,0,VALID,24.1617,VALID,256,VALID,0,
2015-01-04, 00:33:05,VALID,1009.62,VALID,0,INVALID,139.551,VALID,0,VALID,24.1422,VALID,256,VALID,0,
2015-01-04, 00:34:05,VALID,1009.63,VALID,0,INVALID,139.605,VALID,0,VALID,24.1422,VALID,256,VALID,0,
2015-01-04, 00:35:05,VALID,1009.62,VALID,0,INVALID,139.62,VALID,0,VALID,24.144,VALID,256,VALID,0,
2015-01-04, 00:36:05,VALID,1009.62,VALID,0,INVALID,139.658,VALID,0,VALID,24.144,VALID,256,VALID,0,
2015-01-04, 00:37:05,VALID,1009.63,VALID,0,INVALID,139.704,VALID,0,VALID,24.1032,VALID,256,VALID,0,
2015-01-04, 00:38:05,VALID,1009.63,VALID,0,INVALID,139.78,VALID,0,VALID,24.1032,VALID,256,VALID,0,
2015-01-04, 00:39:05,VALID,1009.7,VALID,0,INVALID,139.811,VALID,0,VALID,24.0837,VALID,256,VALID,0,
2015-01-04, 00:40:05,VALID,1009.73,VALID,0,INVALID,139.841,VALID,0.112112,VALID,24.0837,VALID,256,VALID,0,
2015-01-04, 00:41:05,VALID,1009.67,VALID,0,INVALID,139.902,VALID,0.112112,VALID,24.0643,VALID,282,VALID,0,
2015-01-04, 00:42:05,VALID,1009.69,VALID,0,INVALID,139.978,VALID,0,VALID,24.0837,VALID,291,VALID,0,
2015-01-04, 00:43:05,VALID,1009.71,VALID,0,INVALID,140.047,VALID,0,VALID,24.1032,VALID,291,VALID,0,
2015-01-04, 00:44:05,VALID,1009.75,VALID,0,INVALID,140.047,VALID,0,VALID,24.1422,VALID,291,VALID,0,
2015-01-04, 00:45:05,VALID,1009.77,VALID,0,INVALID,140.047,VALID,0,VALID,24.1617,VALID,292,VALID,0,
2015-01-04, 00:46:05,VALID,1009.72,VALID,0,INVALID,140.024,VALID,0,VALID,24.2007,VALID,292,VALID,0,
2015-01-04, 00:47:05,VALID,1009.69,VALID,0,INVALID,139.955,VALID,0,VALID,24.2007,VALID,293,VALID,0,
2015-01-04, 00:48:05,VALID,1009.69,VALID,0,INVALID,139.872,VALID,0,VALID,24.2396,VALID,319,VALID,0,
2015-01-04, 00:49:05,VALID,1009.65,VALID,0,INVALID,139.727,VALID,0,VALID,24.2591,VALID,311,VALID,0,
2015-01-04, 00:50:05,VALID,1009.59,VALID,0,INVALID,139.605,VALID,0,VALID,24.2573,VALID,315,VALID,0,
2015-01-04, 00:51:05,VALID,1009.61,VALID,0,INVALID,139.483,VALID,0,VALID,24.2981,VALID,356,VALID,0,
2015-01-04, 00:52:05,VALID,1009.58,VALID,0,INVALID,139.361,VALID,0,VALID,24.2981,VALID,356,VALID,0,
2015-01-04, 00:53:05,VALID,1009.56,VALID,0,INVALID,139.155,VALID,0.112112,VALID,24.3176,VALID,356,VALID,0,
2015-01-04, 00:54:05,VALID,1009.55,VALID,0,INVALID,138.873,VALID,0,VALID,24.3176,VALID,356,VALID,0,
2015-01-04, 00:55:05,VALID,1009.54,VALID,0,INVALID,138.385,VALID,0,VALID,24.3176,VALID,356,VALID,0,
2015-01-04, 00:56:05,VALID,1009.53,VALID,0,INVALID,137.759,VALID,0,VALID,24.3389,VALID,356,VALID,0,
2015-01-04, 00:57:05,VALID,1009.51,VALID,0,INVALID,137.302,VALID,0,VALID,24.3176,VALID,356,VALID,0,
2015-01-04, 00:58:05,VALID,1009.52,VALID,0,INVALID,136.417,VALID,0,VALID,24.3176,VALID,356,VALID,0,
2015-01-04, 00:59:05,VALID,1009.48,VALID,0,INVALID,135.022,VALID,0,VALID,24.3176,VALID,356,VALID,0,
2015-01-04, 01:00:05,VALID,1009.48,VALID,0,INVALID,134.541,VALID,0,VALID,24.3176,VALID,356,VALID,0,
2015-01-04, 01:01:05,VALID,1009.49,VALID,0,INVALID,134.732,VALID,0,VALID,24.3371,VALID,356,VALID,0,
2015-01-04, 01:02:05,VALID,1009.46,VALID,0,INVALID,133.954,VALID,0,VALID,24.3371,VALID,356,VALID,0,
2015-01-04, 01:03:05,VALID,1009.44,VALID,0,INVALID,132.093,VALID,0,VALID,24.3176,VALID,356,VALID,0,
2015-01-04, 01:04:05,VALID,1009.45,VALID,0,INVALID,132.078,VALID,0,VALID,24.3389,VALID,356,VALID,0,
2015-01-04, 01:05:05,VALID,1009.47,VALID,0,INVALID,131.049,VALID,0,VALID,24.3176,VALID,356,VALID,0,
2015-01-04, 01:06:05,VALID,1009.47,VALID,0,INVALID,129.92,VALID,0,VALID,24.2981,VALID,345,VALID,0,
2015-01-04, 01:07:05,VALID,1009.48,VALID,0,INVALID,129.119,VALID,0,VALID,24.2981,VALID,345,VALID,0,
2015-01-04, 01:08:05,VALID,1009.45,VALID,0,INVALID,129.203,VALID,0,VALID,24.3194,VALID,345,VALID,0,
2015-01-04, 01:09:05,VALID,1009.5,VALID,0,INVALID,128.494,VALID,0,VALID,24.2786,VALID,345,VALID,0,
2015-01-04, 01:10:05,VALID,1009.33,VALID,0,INVALID,125.055,VALID,0,VALID,24.2786,VALID,209,VALID,0,
2015-01-04, 01:11:05,VALID,1009.41,VALID,0,INVALID,119.816,VALID,0,VALID,24.3371,VALID,322,VALID,0,
2015-01-04, 01:12:05,VALID,1009.35,VALID,0,INVALID,110.711,VALID,0,VALID,24.3956,VALID,318,VALID,0,
2015-01-04, 01:13:05,VALID,1009.34,VALID,0,VALID,104,VALID,0,VALID,24.4345,VALID,324,VALID,0,
2015-01-04, 01:14:05,VALID,1009.26,VALID,0,VALID,101.354,VALID,0,VALID,24.415,VALID,337,VALID,0,
2015-01-04, 01:15:05,VALID,1009.26,VALID,0,VALID,100.233,VALID,0,VALID,24.3956,VALID,303,VALID,0,
2015-01-04, 01:16:05,VALID,1009.23,VALID,0,VALID,99.8364,VALID,0,VALID,24.3158,VALID,314,VALID,0,
2015-01-04, 01:17:05,VALID,1009.23,VALID,0,VALID,100.248,VALID,0,VALID,24.2591,VALID,297,VALID,0,
2015-01-04, 01:18:05,VALID,1009.23,VALID,0,VALID,103.848,VALID,0,VALID,24.2007,VALID,351,VALID,0,
2015-01-04, 01:19:05,VALID,1009.21,VALID,0,VALID,104,VALID,0,VALID,24.1422,VALID,330,VALID,0,
2015-01-04, 01:20:05,VALID,1009.17,VALID,0,VALID,104,VALID,0,VALID,24.0643,VALID,303,VALID,0,
2015-01-04, 01:21:05,VALID,1009.12,VALID,0,INVALID,116.087,VALID,0.112112,VALID,23.9863,VALID,355,VALID,0,
2015-01-04, 01:22:05,VALID,1009.13,VALID,0,INVALID,120.769,VALID,0,VALID,23.9278,VALID,293,VALID,0,
2015-01-04, 01:23:05,VALID,1009.09,VALID,0,INVALID,122.058,VALID,0,VALID,23.8481,VALID,346,VALID,0,
2015-01-04, 01:24:05,VALID,1009.08,VALID,0,INVALID,124.643,VALID,0,VALID,23.8091,VALID,340,VALID,0,
2015-01-04, 01:25:05,VALID,1009.01,VALID,0,INVALID,127.022,VALID,0,VALID,23.8109,VALID,340,VALID,0,
2015-01-04, 01:26:05,VALID,1009.01,VALID,0,INVALID,128.258,VALID,0,VALID,23.772,VALID,350,VALID,0,
2015-01-04, 01:27:05,VALID,1008.97,VALID,0,INVALID,129.394,VALID,0,VALID,23.7525,VALID,5,VALID,0,
2015-01-04, 01:28:05,VALID,1008.97,VALID,0,INVALID,127.853,VALID,0,VALID,23.7135,VALID,326,VALID,0,
2015-01-04, 01:29:05,VALID,1008.94,VALID,0,INVALID,128.578,VALID,0,VALID,23.6922,VALID,319,VALID,0,
2015-01-04, 01:30:05,VALID,1008.95,VALID,0,INVALID,129.661,VALID,0,VALID,23.694,VALID,319,VALID,0,
2015-01-04, 01:31:05,VALID,1008.95,VALID,0,INVALID,131.163,VALID,0,VALID,23.6745,VALID,319,VALID,0,
2015-01-04, 01:32:05,VALID,1008.98,VALID,0,INVALID,131.758,VALID,0,VALID,23.655,VALID,340,VALID,0,
2015-01-04, 01:33:05,VALID,1008.92,VALID,0,INVALID,132.513,VALID,0,VALID,23.655,VALID,340,VALID,0,
2015-01-04, 01:34:05,VALID,1008.91,VALID,0,INVALID,133.283,VALID,0,VALID,23.6356,VALID,340,VALID,0,
2015-01-04, 01:35:05,VALID,1008.88,VALID,0,INVALID,133.786,VALID,0.112112,VALID,23.6338,VALID,340,VALID,0,
2015-01-04, 01:36:05,VALID,1008.84,VALID,0,INVALID,134.335,VALID,0,VALID,23.6338,VALID,340,VALID,0,
2015-01-04, 01:37:05,VALID,1008.81,VALID,0.5,INVALID,134.861,VALID,0,VALID,23.6356,VALID,340,VALID,0,
2015-01-04, 01:38:05,VALID,1008.78,VALID,0,INVALID,135.38,VALID,0,VALID,23.6356,VALID,340,VALID,0,
2015-01-04, 01:39:05,VALID,1008.75,VALID,0,INVALID,135.708,VALID,0,VALID,23.6356,VALID,340,VALID,0,
2015-01-04, 01:40:05,VALID,1008.75,VALID,0,INVALID,135.769,VALID,0,VALID,23.6356,VALID,321,VALID,0,
2015-01-04, 01:41:05,VALID,1008.74,VALID,0,INVALID,136.501,VALID,0,VALID,23.6143,VALID,313,VALID,0,
2015-01-04, 01:42:05,VALID,1008.7,VALID,0,INVALID,136.631,VALID,0,VALID,23.6356,VALID,313,VALID,0,
2015-01-04, 01:43:05,VALID,1008.66,VALID,0,INVALID,136.684,VALID,0.112112,VALID,23.6356,VALID,313,VALID,0,
2015-01-04, 01:44:05,VALID,1008.62,VALID,0,INVALID,136.776,VALID,0,VALID,23.6161,VALID,313,VALID,0,
2015-01-04, 01:45:05,VALID,1008.58,VALID,0,INVALID,137.271,VALID,0.112112,VALID,23.6143,VALID,313,VALID,0,
2015-01-04, 01:46:05,VALID,1008.58,VALID,0,INVALID,137.63,VALID,0,VALID,23.6373,VALID,313,VALID,0,
2015-01-04, 01:47:05,VALID,1008.54,VALID,0,INVALID,137.843,VALID,0,VALID,23.6161,VALID,313,VALID,0,
2015-01-04, 01:48:05,VALID,1008.52,VALID,0,INVALID,137.965,VALID,0,VALID,23.6179,VALID,313,VALID,0,
2015-01-04, 01:49:05,VALID,1008.54,VALID,0,INVALID,138.293,VALID,0,VALID,23.5966,VALID,313,VALID,0,
2015-01-04, 01:50:05,VALID,1008.52,VALID,0,INVALID,138.606,VALID,0,VALID,23.5966,VALID,313,VALID,0,
2015-01-04, 01:51:05,VALID,1008.57,VALID,0,INVALID,138.934,VALID,0,VALID,23.5966,VALID,313,VALID,0,
2015-01-04, 01:52:04,VALID,1008.62,VALID,0,INVALID,138.934,VALID,0,VALID,23.5966,VALID,313,VALID,0,
2015-01-04, 01:53:04,VALID,1008.62,VALID,0,INVALID,139.139,VALID,0,VALID,23.5771,VALID,313,VALID,0,
2015-01-04, 01:54:04,VALID,1008.64,VALID,0,INVALID,139.284,VALID,0.112112,VALID,23.5771,VALID,313,VALID,0,
2015-01-04, 01:55:04,VALID,1008.67,VALID,0,INVALID,139.345,VALID,0,VALID,23.5771,VALID,313,VALID,0,
2015-01-04, 01:56:04,VALID,1008.64,VALID,0,INVALID,139.559,VALID,0,VALID,23.5771,VALID,313,VALID,0,
2015-01-04, 01:57:04,VALID,1008.65,VALID,0,INVALID,139.719,VALID,0,VALID,23.5771,VALID,313,VALID,0,
2015-01-04, 01:58:04,VALID,1008.64,VALID,0,INVALID,139.917,VALID,0,VALID,23.5753,VALID,313,VALID,0,
2015-01-04, 01:59:04,VALID,1008.63,VALID,0,INVALID,140.024,VALID,0,VALID,23.5966,VALID,313,VALID,0,
2015-01-04, 02:00:04,VALID,1008.6,VALID,0,INVALID,140.161,VALID,0,VALID,23.6161,VALID,313,VALID,0,
2015-01-04, 02:01:04,VALID,1008.6,VALID,0,INVALID,140.291,VALID,0,VALID,23.6356,VALID,313,VALID,0,
2015-01-04, 02:02:04,VALID,1008.59,VALID,0,INVALID,140.352,VALID,0,VALID,23.6356,VALID,313,VALID,0,
2015-01-04, 02:03:04,VALID,1008.57,VALID,0,INVALID,140.398,VALID,0,VALID,23.655,VALID,313,VALID,0,
2015-01-04, 02:04:04,VALID,1008.58,VALID,0,INVALID,140.428,VALID,0,VALID,23.6745,VALID,313,VALID,0,
2015-01-04, 02:05:04,VALID,1008.55,VALID,0,INVALID,140.451,VALID,0,VALID,23.6958,VALID,313,VALID,0,
2015-01-04, 02:06:04,VALID,1008.57,VALID,0,INVALID,140.451,VALID,0,VALID,23.6745,VALID,313,VALID,0,
2015-01-04, 02:07:04,VALID,1008.58,VALID,0,INVALID,140.497,VALID,0,VALID,23.694,VALID,313,VALID,0,
2015-01-04, 02:08:04,VALID,1008.57,VALID,0,INVALID,140.459,VALID,0,VALID,23.694,VALID,313,VALID,0,
2015-01-04, 02:09:04,VALID,1008.56,VALID,0,INVALID,140.436,VALID,0,VALID,23.7135,VALID,313,VALID,0,
2015-01-04, 02:10:04,VALID,1008.54,VALID,0,INVALID,140.413,VALID,0,VALID,23.733,VALID,313,VALID,0,
2015-01-04, 02:11:04,VALID,1008.57,VALID,0,INVALID,140.413,VALID,0,VALID,23.7525,VALID,313,VALID,0,
2015-01-04, 02:12:04,VALID,1008.57,VALID,0,INVALID,140.436,VALID,0,VALID,23.7525,VALID,313,VALID,0,
2015-01-04, 02:13:04,VALID,1008.59,VALID,0,INVALID,140.436,VALID,0,VALID,23.7525,VALID,313,VALID,0,
2015-01-04, 02:14:04,VALID,1008.55,VALID,0,INVALID,140.421,VALID,0,VALID,23.7525,VALID,313,VALID,0,
2015-01-04, 02:15:04,VALID,1008.54,VALID,0,INVALID,140.367,VALID,0,VALID,23.772,VALID,313,VALID,0,
2015-01-04, 02:16:04,VALID,1008.56,VALID,0,INVALID,140.36,VALID,0,VALID,23.772,VALID,313,VALID,0,
2015-01-04, 02:17:04,VALID,1008.52,VALID,0,INVALID,140.321,VALID,0,VALID,23.772,VALID,313,VALID,0,
2015-01-04, 02:18:04,VALID,1008.52,VALID,0,INVALID,140.321,VALID,0,VALID,23.7932,VALID,313,VALID,0,
2015-01-04, 02:19:04,VALID,1008.52,VALID,0,INVALID,140.321,VALID,0,VALID,23.8127,VALID,313,VALID,0,
2015-01-04, 02:20:04,VALID,1008.52,VALID,0,INVALID,140.291,VALID,0,VALID,23.8127,VALID,313,VALID,0,
2015-01-04, 02:21:04,VALID,1008.5,VALID,0,INVALID,140.291,VALID,0,VALID,23.8127,VALID,313,VALID,0,
2015-01-04, 02:22:04,VALID,1008.46,VALID,0,INVALID,140.215,VALID,0,VALID,23.7932,VALID,313,VALID,0,
2015-01-04, 02:23:04,VALID,1008.46,VALID,0,INVALID,140.192,VALID,0,VALID,23.7525,VALID,313,VALID,0,
2015-01-04, 02:24:04,VALID,1008.46,VALID,0,INVALID,140.154,VALID,0,VALID,23.7525,VALID,313,VALID,0,
2015-01-04, 02:25:04,VALID,1008.47,VALID,0,INVALID,140.154,VALID,0,VALID,23.7525,VALID,313,VALID,0,
2015-01-04, 02:26:04,VALID,1008.47,VALID,0,INVALID,140.131,VALID,0,VALID,23.7525,VALID,313,VALID,0,
2015-01-04, 02:27:04,VALID,1008.46,VALID,0,INVALID,140.146,VALID,0,VALID,23.7525,VALID,313,VALID,0,
2015-01-04, 02:28:04,VALID,1008.44,VALID,0,INVALID,140.154,VALID,0,VALID,23.7525,VALID,313,VALID,0,
2015-01-04, 02:29:04,VALID,1008.43,VALID,0,INVALID,140.169,VALID,0,VALID,23.7738,VALID,313,VALID,0,
2015-01-04, 02:30:04,VALID,1008.42,VALID,0,INVALID,140.192,VALID,0,VALID,23.772,VALID,313,VALID,0,
2015-01-04, 02:31:04,VALID,1008.4,VALID,0,INVALID,140.192,VALID,0,VALID,23.772,VALID,313,VALID,0,
2015-01-04, 02:32:04,VALID,1008.39,VALID,0,INVALID,140.177,VALID,0,VALID,23.772,VALID,313,VALID,0,
2015-01-04, 02:33:04,VALID,1008.36,VALID,0,INVALID,140.161,VALID,0,VALID,23.772,VALID,313,VALID,0,
2015-01-04, 02:34:04,VALID,1008.35,VALID,0,INVALID,140.146,VALID,0,VALID,23.7312,VALID,313,VALID,0,
2015-01-04, 02:35:04,VALID,1008.38,VALID,0,INVALID,140.123,VALID,0,VALID,23.7525,VALID,313,VALID,0,
2015-01-04, 02:36:04,VALID,1008.39,VALID,0,INVALID,140.161,VALID,0,VALID,23.7525,VALID,313,VALID,0,
2015-01-04, 02:37:04,VALID,1008.39,VALID,0,INVALID,140.108,VALID,0,VALID,23.7525,VALID,313,VALID,0,
2015-01-04, 02:38:04,VALID,1008.38,VALID,0,INVALID,140.093,VALID,0,VALID,23.772,VALID,313,VALID,0,
2015-01-04, 02:39:04,VALID,1008.37,VALID,0,INVALID,140.085,VALID,0,VALID,23.772,VALID,313,VALID,0,
2015-01-04, 02:40:04,VALID,1008.34,VALID,0,INVALID,140.047,VALID,0,VALID,23.7914,VALID,313,VALID,0,
2015-01-04, 02:41:04,VALID,1008.36,VALID,0,INVALID,140.032,VALID,0,VALID,23.772,VALID,313,VALID,0,
2015-01-04, 02:42:04,VALID,1008.35,VALID,0,INVALID,140.024,VALID,0,VALID,23.7525,VALID,313,VALID,0,
2015-01-04, 02:43:04,VALID,1008.36,VALID,0,INVALID,139.917,VALID,0,VALID,23.772,VALID,313,VALID,0,
2015-01-04, 02:44:04,VALID,1008.33,VALID,0,INVALID,139.887,VALID,0,VALID,23.7525,VALID,313,VALID,0,
2015-01-04, 02:45:04,VALID,1008.35,VALID,0,INVALID,139.879,VALID,0,VALID,23.733,VALID,313,VALID,0,
2015-01-04, 02:46:04,VALID,1008.32,VALID,0,INVALID,139.879,VALID,0,VALID,23.7135,VALID,313,VALID,0,
2015-01-04, 02:47:04,VALID,1008.3,VALID,0,INVALID,139.826,VALID,0,VALID,23.733,VALID,313,VALID,0,
2015-01-04, 02:48:04,VALID,1008.28,VALID,0,INVALID,139.818,VALID,0,VALID,23.733,VALID,313,VALID,0,
2015-01-04, 02:49:04,VALID,1008.24,VALID,0,INVALID,139.826,VALID,0,VALID,23.7543,VALID,313,VALID,0,
2015-01-04, 02:50:04,VALID,1008.23,VALID,0,INVALID,139.803,VALID,0,VALID,23.7525,VALID,313,VALID,0,
2015-01-04, 02:51:04,VALID,1008.19,VALID,0,INVALID,139.788,VALID,0,VALID,23.733,VALID,313,VALID,0,
2015-01-04, 02:52:04,VALID,1008.2,VALID,0,INVALID,139.78,VALID,0,VALID,23.7135,VALID,313,VALID,0,
2015-01-04, 02:53:04,VALID,1008.2,VALID,0,INVALID,139.719,VALID,0,VALID,23.7543,VALID,313,VALID,0,
2015-01-04, 02:54:04,VALID,1008.19,VALID,0,INVALID,139.704,VALID,0,VALID,23.7543,VALID,313,VALID,0,
2015-01-04, 02:55:04,VALID,1008.19,VALID,0,INVALID,139.666,VALID,0,VALID,23.733,VALID,313,VALID,0,
2015-01-04, 02:56:04,VALID,1008.17,VALID,0,INVALID,139.65,VALID,0,VALID,23.7525,VALID,313,VALID,0,
2015-01-04, 02:57:04,VALID,1008.19,VALID,0,INVALID,139.597,VALID,0,VALID,23.772,VALID,313,VALID,0,
2015-01-04, 02:58:04,VALID,1008.15,VALID,0,INVALID,139.551,VALID,0,VALID,23.772,VALID,313,VALID,0,
2015-01-04, 02:59:04,VALID,1008.15,VALID,0,INVALID,139.506,VALID,0,VALID,23.772,VALID,313,VALID,0,
2015-01-04, 03:00:04,VALID,1008.12,VALID,0,INVALID,139.467,VALID,0,VALID,23.7525,VALID,313,VALID,0,
2015-01-04, 03:01:04,VALID,1008.13,VALID,0,INVALID,139.422,VALID,0,VALID,23.733,VALID,313,VALID,0,
2015-01-04, 03:02:04,VALID,1008.14,VALID,0,INVALID,139.399,VALID,0,VALID,23.7525,VALID,313,VALID,0,
2015-01-04, 03:03:04,VALID,1008.12,VALID,0,INVALID,139.384,VALID,0,VALID,23.733,VALID,313,VALID,0,
2015-01-04, 03:04:04,VALID,1008.12,VALID,0,INVALID,139.368,VALID,0,VALID,23.733,VALID,313,VALID,0,
2015-01-04, 03:05:04,VALID,1008.09,VALID,0,INVALID,139.406,VALID,0,VALID,23.7135,VALID,313,VALID,0,
2015-01-04, 03:06:04,VALID,1008.07,VALID,0,INVALID,139.399,VALID,0,VALID,23.7135,VALID,313,VALID,0,
2015-01-04, 03:07:04,VALID,1008.05,VALID,0,INVALID,139.452,VALID,0,VALID,23.7135,VALID,313,VALID,0,
2015-01-04, 03:08:04,VALID,1008.08,VALID,0,INVALID,139.452,VALID,0,VALID,23.7153,VALID,313,VALID,0,
2015-01-04, 03:09:04,VALID,1008.05,VALID,0,INVALID,139.483,VALID,0,VALID,23.7348,VALID,313,VALID,0,
2015-01-04, 03:10:04,VALID,1008.07,VALID,0,INVALID,139.49,VALID,0,VALID,23.7348,VALID,313,VALID,0,
2015-01-04, 03:11:04,VALID,1008.06,VALID,0,INVALID,139.513,VALID,0,VALID,23.7135,VALID,313,VALID,0,
2015-01-04, 03:12:04,VALID,1008.05,VALID,0,INVALID,139.559,VALID,0,VALID,23.694,VALID,313,VALID,0,
2015-01-04, 03:13:04,VALID,1008.03,VALID,0,INVALID,139.582,VALID,0.112112,VALID,23.694,VALID,313,VALID,0,
2015-01-04, 03:14:04,VALID,1008.01,VALID,0,INVALID,139.589,VALID,0,VALID,23.6745,VALID,313,VALID,0,
2015-01-04, 03:15:04,VALID,1008.02,VALID,0,INVALID,139.605,VALID,0,VALID,23.6958,VALID,313,VALID,0,
2015-01-04, 03:16:04,VALID,1008.01,VALID,0,INVALID,139.605,VALID,0,VALID,23.6745,VALID,313,VALID,0,
2015-01-04, 03:17:04,VALID,1008.01,VALID,0,INVALID,139.643,VALID,0,VALID,23.6763,VALID,313,VALID,0,
2015-01-04, 03:18:04,VALID,1008.01,VALID,0,INVALID,139.673,VALID,0,VALID,23.655,VALID,313,VALID,0,
2015-01-04, 03:19:04,VALID,1007.99,VALID,0,INVALID,139.719,VALID,0,VALID,23.6338,VALID,313,VALID,0,
2015-01-04, 03:20:04,VALID,1007.98,VALID,0,INVALID,139.704,VALID,0,VALID,23.6745,VALID,313,VALID,0,
2015-01-04, 03:21:04,VALID,1008.01,VALID,0,INVALID,139.734,VALID,0.112112,VALID,23.655,VALID,313,VALID,0,
2015-01-04, 03:22:04,VALID,1007.98,VALID,0,INVALID,139.765,VALID,0,VALID,23.6161,VALID,313,VALID,0,
2015-01-04, 03:23:04,VALID,1007.96,VALID,0,INVALID,139.772,VALID,0,VALID,23.6373,VALID,313,VALID,0,
2015-01-04, 03:24:04,VALID,1007.97,VALID,0,INVALID,139.795,VALID,0,VALID,23.5948,VALID,313,VALID,0,
2015-01-04, 03:25:04,VALID,1007.94,VALID,0,INVALID,139.795,VALID,0,VALID,23.5966,VALID,313,VALID,0,
2015-01-04, 03:26:04,VALID,1007.96,VALID,0,INVALID,139.833,VALID,0,VALID,23.5966,VALID,313,VALID,0,
2015-01-04, 03:27:04,VALID,1007.92,VALID,0,INVALID,139.864,VALID,0,VALID,23.5966,VALID,313,VALID,0,
2015-01-04, 03:28:04,VALID,1007.91,VALID,0,INVALID,139.872,VALID,0,VALID,23.5966,VALID,313,VALID,0,
2015-01-04, 03:29:04,VALID,1007.86,VALID,0,INVALID,139.879,VALID,0,VALID,23.5771,VALID,313,VALID,0,
2015-01-04, 03:30:04,VALID,1007.88,VALID,0,INVALID,139.833,VALID,0,VALID,23.5576,VALID,313,VALID,0,
2015-01-04, 03:31:04,VALID,1007.88,VALID,0,INVALID,139.833,VALID,0,VALID,23.5381,VALID,313,VALID,0,
2015-01-04, 03:32:04,VALID,1007.89,VALID,0,INVALID,139.879,VALID,0,VALID,23.5186,VALID,313,VALID,0,
2015-01-04, 03:33:04,VALID,1007.88,VALID,0,INVALID,139.833,VALID,0,VALID,23.5186,VALID,313,VALID,0,
2015-01-04, 03:34:04,VALID,1007.88,VALID,0,INVALID,139.818,VALID,0,VALID,23.5204,VALID,313,VALID,0,
2015-01-04, 03:35:04,VALID,1007.86,VALID,0,INVALID,139.826,VALID,0,VALID,23.4797,VALID,313,VALID,0,
2015-01-04, 03:36:04,VALID,1007.82,VALID,0,INVALID,139.811,VALID,0,VALID,23.4797,VALID,313,VALID,0,
2015-01-04, 03:37:04,VALID,1007.83,VALID,0,INVALID,139.803,VALID,0,VALID,23.4602,VALID,313,VALID,0,
2015-01-04, 03:38:04,VALID,1007.86,VALID,0,INVALID,139.78,VALID,0,VALID,23.4602,VALID,313,VALID,0,
2015-01-04, 03:39:04,VALID,1007.87,VALID,0,INVALID,139.704,VALID,0,VALID,23.462,VALID,313,VALID,0,
2015-01-04, 03:40:04,VALID,1007.83,VALID,0,INVALID,139.673,VALID,0,VALID,23.4212,VALID,313,VALID,0,
2015-01-04, 03:41:04,VALID,1007.81,VALID,0,INVALID,139.65,VALID,0,VALID,23.4425,VALID,313,VALID,0,
2015-01-04, 03:42:04,VALID,1007.82,VALID,0,INVALID,139.597,VALID,0,VALID,23.4017,VALID,313,VALID,0,
2015-01-04, 03:43:04,VALID,1007.8,VALID,0,INVALID,139.544,VALID,0,VALID,23.423,VALID,313,VALID,0,
2015-01-04, 03:44:04,VALID,1007.8,VALID,0,INVALID,139.513,VALID,0,VALID,23.3823,VALID,313,VALID,0,
2015-01-04, 03:45:04,VALID,1007.81,VALID,0,INVALID,139.452,VALID,0,VALID,23.384,VALID,313,VALID,0,
2015-01-04, 03:46:04,VALID,1007.81,VALID,0,INVALID,139.422,VALID,0,VALID,23.384,VALID,313,VALID,0,
2015-01-04, 03:47:04,VALID,1007.82,VALID,0,INVALID,139.353,VALID,0,VALID,23.3628,VALID,313,VALID,0,
2015-01-04, 03:48:04,VALID,1007.82,VALID,0,INVALID,139.307,VALID,0,VALID,23.3628,VALID,313,VALID,0,
2015-01-04, 03:49:04,VALID,1007.79,VALID,0,INVALID,139.269,VALID,0,VALID,23.3415,VALID,313,VALID,0,
2015-01-04, 03:50:04,VALID,1007.8,VALID,0,INVALID,139.208,VALID,0,VALID,23.3823,VALID,313,VALID,0,
2015-01-04, 03:51:04,VALID,1007.78,VALID,0,INVALID,139.117,VALID,0,VALID,23.3823,VALID,313,VALID,0,
2015-01-04, 03:52:04,VALID,1007.75,VALID,0,INVALID,139.063,VALID,0,VALID,23.3628,VALID,313,VALID,0,
2015-01-04, 03:53:04,VALID,1007.72,VALID,0,INVALID,139.04,VALID,0,VALID,23.3628,VALID,313,VALID,0,
2015-01-04, 03:54:04,VALID,1007.71,VALID,0,INVALID,138.949,VALID,0,VALID,23.3433,VALID,313,VALID,0,